DW2738 Weather Reports


Display with metric or nautical units.
time (UTC)temp
F
wind
direction
speed
MPH
gust
MPH
rain 1hr
in
rain 24hr
in
rain mn
in
humidity
%
barometer
mb
20260904055146 74 290 2.0 2.0 0.00 0.00 0.00 99 1011.2
20260904054642 73 265 2.0 2.0 0.00 0.00 0.00 99 1011.2
20260904054138 73 247 2.0 3.0 0.00 0.00 0.00 99 1011.3
20260904053638 73 261 2.0 2.0 0.00 0.00 0.00 99 1011.4
20260904053132 73 243 3.0 3.0 0.00 0.00 0.00 99 1011.7
20260904052629 73 240 2.0 3.0 0.00 0.00 0.00 99 1011.6
20260904052125 73 263 3.0 3.0 0.00 0.00 0.00 99 1011.8
20260904051621 73 243 2.0 2.0 0.00 0.00 0.00 99 1012.1
20260904051115 73 264 2.0 3.0 0.00 0.00 0.00 99 1012.0
20260904050610 73 270 1.0 2.0 0.00 0.00 0.00 99 1011.7
20260904050107 73 262 1.0 2.0 0.00 0.00 0.00 99 1011.7
20260904045601 73 259 2.0 2.0 0.00 0.00 0.00 99 1011.7
20260904045056 73 254 2.0 2.0 0.00 0.00 0.00 99 1011.6
20260904044551 73 254 2.0 2.0 0.00 0.00 0.00 99 1011.4
20260904044048 73 257 1.0 1.0 0.00 0.00 0.00 99 1011.5
20260904043544 73 257 1.0 2.0 0.00 0.00 0.00 99 1011.6
20260904043040 73 276 1.0 2.0 0.00 0.00 0.00 99 1012.0
20260904042536 73 258 2.0 2.0 0.00 0.00 0.00 99 1012.0
20260904042031 73 251 2.0 2.0 0.00 0.00 0.00 99 1012.1
20260904041527 73 248 2.0 2.0 0.00 0.00 0.00 99 1012.0
20260904041023 73 251 1.0 2.0 0.00 0.00 0.00 99 1012.1
20260904040522 73 270 0.0 2.0 0.00 0.00 0.00 99 1012.4
20260904040019 73 253 2.0 2.0 0.00 0.22 0.22 99 1012.3
20260904035514 73 258 2.0 2.0 0.00 0.22 0.22 99 1012.2
20260904035013 73 263 1.0 2.0 0.00 0.22 0.22 99 1012.5
20260904034508 73 261 2.0 2.0 0.00 0.22 0.22 99 1012.5
20260904034004 73 270 2.0 2.0 0.00 0.22 0.22 99 1012.6
20260904033500 73 258 2.0 2.0 0.00 0.22 0.22 99 1012.7
20260904032956 74 261 2.0 2.0 0.00 0.22 0.22 99 1012.8
20260904032451 73 255 2.0 2.0 0.00 0.22 0.22 99 1012.8
20260904031950 73 257 2.0 2.0 0.00 0.22 0.22 99 1012.8
20260904031445 73 270 2.0 2.0 0.00 0.22 0.22 99 1012.5
20260904030941 73 259 2.0 2.0 0.00 0.22 0.22 99 1012.8
20260904030437 73 264 2.0 2.0 0.00 0.22 0.22 99 1012.6
20260904025931 73 266 2.0 2.0 0.00 0.22 0.22 99 1012.8
20260904025428 74 276 2.0 2.0 0.00 0.22 0.22 99 1012.5
20260904024922 74 270 2.0 2.0 0.00 0.22 0.22 99 1012.4
20260904024417 74 245 2.0 2.0 0.00 0.22 0.22 99 1012.3
20260904023913 74 243 2.0 2.0 0.00 0.22 0.22 99 1012.5
20260904023410 74 258 2.0 2.0 0.00 0.22 0.22 99 1012.5
20260904022908 74 253 2.0 2.0 0.00 0.22 0.22 99 1012.6
20260904022405 74 270 2.0 2.0 0.00 0.22 0.22 99 1012.8
20260904021901 74 248 2.0 2.0 0.00 0.22 0.22 99 1012.7
20260904021357 74 265 2.0 2.0 0.00 0.22 0.22 99 1012.8
20260904020852 74 239 2.0 3.0 0.00 0.22 0.22 99 1012.7
20260904020347 74 270 2.0 2.0 0.00 0.22 0.22 99 1012.7
20260904015845 74 239 2.0 2.0 0.00 0.22 0.22 99 1013.0
20260904015341 74 241 2.0 2.0 0.00 0.22 0.22 99 1013.1
20260904014840 74 258 2.0 2.0 0.00 0.22 0.22 99 1012.9
20260904014335 74 259 2.0 2.0 0.00 0.22 0.22 99 1013.3
20260904013831 75 248 2.0 2.0 0.00 0.22 0.22 99 1013.2
20260904013327 75 250 2.0 2.0 0.00 0.22 0.22 99 1013.3
20260904012823 75 282 2.0 2.0 0.00 0.22 0.22 99 1013.5
20260904012323 75 276 1.0 3.0 0.00 0.22 0.22 99 1013.4
20260904011822 75 262 1.0 2.0 0.00 0.22 0.22 99 1013.1
20260904011317 75 239 2.0 2.0 0.00 0.22 0.22 99 1013.2
20260904010811 75 235 3.0 3.0 0.00 0.22 0.22 99 1013.2
20260904010309 75 246 2.0 2.0 0.00 0.22 0.22 99 1013.4
20260904005803 75 243 2.0 2.0 0.00 0.22 0.22 99 1013.2
20260904005259 75 254 1.0 2.0 0.00 0.22 0.22 99 1013.5
20260904004753 76 258 2.0 2.0 0.00 0.22 0.22 99 1013.4
20260904004249 76 248 2.0 2.0 0.00 0.22 0.22 99 1013.5
20260904003744 76 259 2.0 2.0 0.00 0.22 0.22 99 1013.3
20260904003240 76 250 2.0 2.0 0.00 0.22 0.22 99 1013.1
20260904002735 76 265 2.0 2.0 0.00 0.22 0.22 99 1013.5
20260904002233 76 270 2.0 2.0 0.00 0.22 0.22 99 1013.0
20260904001732 76 259 2.0 2.0 0.00 0.22 0.22 99 1012.9
20260904001226 77 247 2.0 2.0 0.00 0.22 0.22 99 1012.9
20260904000721 77 247 2.0 2.0 0.00 0.22 0.22 99 1012.7
20260904000218 77 245 2.0 2.0 0.00 0.22 0.22 98 1012.5
20260903235715 77 251 1.0 2.0 0.00 0.22 0.22 98 1012.4
20260903235212 77 262 1.0 2.0 0.00 0.22 0.22 98 1012.3
20260903234706 77 259 2.0 2.0 0.00 0.22 0.22 98 1012.5
20260903234203 78 257 1.0 2.0 0.00 0.22 0.22 98 1012.5
20260903233658 78 240 2.0 2.0 0.00 0.22 0.22 97 1012.6
20260903233154 78 255 1.0 2.0 0.00 0.22 0.22 97 1012.4
20260903232647 78 257 1.0 2.0 0.00 0.22 0.22 97 1012.5
20260903232144 78 259 2.0 2.0 0.00 0.22 0.22 96 1012.5
20260903231642 78 248 2.0 2.0 0.00 0.22 0.22 96 1012.4
20260903231137 79 257 2.0 2.0 0.00 0.22 0.22 96 1012.3
20260903230633 79 245 2.0 3.0 0.00 0.22 0.22 95 1012.2
20260903230132 80 248 2.0 3.0 0.00 0.22 0.22 95 1012.1
20260903225629 80 257 2.0 3.0 0.00 0.22 0.22 95 1012.1
20260903225125 80 251 2.0 3.0 0.00 0.22 0.22 94 1011.9
20260903224621 80 260 2.0 2.0 0.00 0.22 0.22 94 1012.0
20260903224118 80 279 1.0 2.0 0.00 0.22 0.22 93 1012.0
20260903223613 81 245 2.0 3.0 0.00 0.22 0.22 93 1012.2
20260903223110 81 262 3.0 3.0 0.00 0.22 0.22 93 1012.1
20260903222606 81 270 3.0 3.0 0.00 0.22 0.22 93 1011.9
20260903222104 81 255 3.0 3.0 0.00 0.22 0.22 92 1011.9
20260903221600 82 270 2.0 3.0 0.00 0.22 0.22 91 1012.0
20260903221058 82 266 3.0 3.0 0.00 0.22 0.22 91 1012.0
20260903220557 82 258 3.0 3.0 0.00 0.22 0.22 89 1012.1
20260903220056 82 261 3.0 3.0 0.00 0.22 0.22 89 1012.1
20260903215555 83 266 2.0 3.0 0.00 0.22 0.22 87 1011.8
20260903215050 83 160 1.0 4.0 0.00 0.22 0.22 86 1012.0
20260903214550 83 260 2.0 3.0 0.00 0.22 0.22 87 1011.9
20260903214045 83 257 3.0 5.0 0.00 0.22 0.22 87 1012.0
20260903213540 83 259 2.0 3.0 0.00 0.22 0.22 86 1011.9
20260903213036 83 255 3.0 4.0 0.00 0.22 0.22 84 1012.0
20260903212532 84 270 0.0 3.0 0.00 0.22 0.22 85 1012.0
20260903212027 84 249 1.0 4.0 0.00 0.22 0.22 85 1011.9
20260903211521 84 265 4.0 4.0 0.00 0.22 0.22 85 1012.0
20260903211019 84 264 2.0 4.0 0.00 0.22 0.22 82 1012.1
20260903210518 85 270 2.0 4.0 0.00 0.22 0.22 83 1012.0
20260903210009 85 250 3.0 3.0 0.00 0.22 0.22 82 1012.0
20260903205502 85 276 2.0 5.0 0.00 0.22 0.22 82 1011.9
20260903204956 85 261 2.0 4.0 0.00 0.22 0.22 80 1011.9
20260903204453 86 270 3.0 5.0 0.00 0.22 0.22 81 1011.8
20260903203948 86 222 3.0 4.0 0.00 0.22 0.22 79 1012.1
20260903203443 86 216 4.0 6.0 0.00 0.22 0.22 80 1012.1
20260903202942 86 239 3.0 7.0 0.00 0.22 0.22 78 1012.3
20260903202439 87 245 2.0 4.0 0.00 0.22 0.22 80 1012.0
20260903201933 87 255 4.0 4.0 0.00 0.22 0.22 77 1011.9
20260903201429 88 275 2.0 3.0 0.00 0.22 0.22 78 1012.1
20260903200927 88 239 4.0 5.0 0.00 0.22 0.22 78 1012.1
20260903200422 87 275 4.0 5.0 0.00 0.22 0.22 77 1012.4
20260903195917 88 231 3.0 5.0 0.00 0.22 0.22 77 1012.2
20260903195414 88 206 0.0 5.0 0.00 0.22 0.22 76 1012.5
20260903194908 88 270 2.0 3.0 0.00 0.22 0.22 77 1012.7
20260903194404 88 254 0.0 6.0 0.00 0.22 0.22 75 1012.6
20260903193859 88 236 2.0 4.0 0.00 0.22 0.22 77 1012.7
20260903193355 88 265 0.0 5.0 0.00 0.22 0.22 76 1012.8
20260903192850 87 270 4.0 5.0 0.00 0.22 0.22 78 1012.8
20260903192346 87 319 4.0 5.0 0.00 0.22 0.22 76 1012.8
20260903191843 88 315 0.0 6.0 0.00 0.22 0.22 75 1013.0
20260903191338 87 262 3.0 4.0 0.00 0.22 0.22 77 1013.0
20260903190837 87 274 3.0 5.0 0.00 0.22 0.22 78 1013.1
20260903190332 87 294 0.0 6.0 0.00 0.22 0.22 78 1013.0
20260903185831 87 229 3.0 5.0 0.00 0.22 0.22 78 1013.1
20260903185327 87 301 2.0 5.0 0.00 0.22 0.22 80 1013.1
20260903184823 87 278 2.0 5.0 0.00 0.22 0.22 78 1013.2
20260903184319 87 288 2.0 5.0 0.00 0.22 0.22 79 1013.3
20260903183814 86 259 5.0 6.0 0.00 0.22 0.22 80 1013.3
20260903183314 86 228 3.0 6.0 0.00 0.22 0.22 77 1013.2
20260903182808 86 223 6.0 8.0 0.00 0.22 0.22 78 1013.2
20260903182308 86 255 3.0 5.0 0.00 0.22 0.22 80 1013.3
20260903181808 85 304 4.0 4.0 0.00 0.22 0.22 81 1013.3
20260903181303 86 154 3.0 4.0 0.00 0.22 0.22 79 1013.1
20260903180757 86 263 4.0 5.0 0.00 0.22 0.22 78 1013.3
20260903180257 86 265 2.0 2.0 0.00 0.22 0.22 78 1013.2
20260903175756 86 259 5.0 5.0 0.00 0.22 0.22 78 1013.4
20260903175255 87 273 3.0 4.0 0.00 0.22 0.22 80 1013.4
20260903174755 87 221 5.0 5.0 0.00 0.22 0.22 79 1013.7
20260903174251 87 264 2.0 5.0 0.00 0.22 0.22 81 1014.0
20260903173745 86 246 3.0 5.0 0.00 0.22 0.22 82 1013.8
20260903173241 86 274 3.0 4.0 0.00 0.22 0.22 82 1014.1
20260903172736 85 270 3.0 3.0 0.00 0.22 0.22 84 1014.2
20260903172231 85 262 4.0 4.0 0.00 0.22 0.22 85 1014.3
20260903171726 84 263 0.0 4.0 0.00 0.22 0.22 87 1014.3
20260903171222 83 259 5.0 5.0 0.00 0.22 0.22 88 1014.7
20260903170720 83 248 2.0 5.0 0.00 0.22 0.22 86 1014.6
20260903170216 84 234 0.0 7.0 0.00 0.22 0.22 85 1014.7
20260903165714 84 232 5.0 5.0 0.00 0.22 0.22 85 1014.8
20260903165209 83 255 3.0 4.0 0.00 0.22 0.22 89 1014.9
20260903164703 82 265 2.0 6.0 0.00 0.22 0.22 89 1015.0
20260903164159 82 291 3.0 4.0 0.00 0.22 0.22 89 1014.8
20260903163659 82 237 3.0 5.0 0.00 0.22 0.22 89 1015.1
20260903163155 82 232 0.0 7.0 0.00 0.22 0.22 88 1015.1
20260903162651 83 292 2.0 6.0 0.00 0.22 0.22 86 1014.9
20260903162147 84 250 2.0 5.0 0.00 0.22 0.22 87 1015.1
20260903161642 84 229 4.0 5.0 0.00 0.22 0.22 85 1014.9
20260903161137 83 257 2.0 5.0 0.00 0.22 0.22 86 1014.8
20260903160633 82 162 2.0 6.0 0.00 0.22 0.22 87 1014.8
20260903160127 83 272 5.0 5.0 0.00 0.22 0.22 86 1015.0
20260903155626 84 264 3.0 6.0 0.00 0.22 0.22 85 1014.9
20260903155121 83 248 2.0 4.0 0.00 0.22 0.22 88 1015.1
20260903154617 83 255 2.0 7.0 0.00 0.22 0.22 88 1015.0
20260903154113 83 263 5.0 6.0 0.00 0.22 0.22 89 1015.0
20260903153609 82 259 4.0 10.0 0.00 0.22 0.22 88 1015.0
20260903153104 82 274 2.0 5.0 0.00 0.22 0.22 89 1015.0
20260903152600 82 233 2.0 4.0 0.00 0.22 0.22 90 1015.0
20260903152056 81 159 2.0 7.0 0.00 0.22 0.22 89 1015.2
20260903151555 81 225 3.0 5.0 0.00 0.22 0.22 91 1015.2
20260903151050 80 283 2.0 5.0 0.00 0.22 0.22 92 1014.9
20260903150544 80 231 2.0 4.0 0.00 0.22 0.22 92 1015.0
20260903150040 79 213 5.0 5.0 0.00 0.22 0.22 92 1015.2
20260903145533 79 256 3.0 5.0 0.00 0.22 0.22 92 1015.4
20260903145029 79 255 0.0 6.0 0.00 0.22 0.22 94 1015.2
20260903144528 79 249 3.0 5.0 0.00 0.22 0.22 93 1015.3
20260903144024 79 10 2.0 5.0 0.00 0.22 0.22 95 1015.2
20260903143520 78 221 2.0 5.0 0.00 0.22 0.22 93 1015.0
20260903143016 78 206 2.0 5.0 0.00 0.22 0.22 95 1015.1
20260903142511 77 194 1.0 4.0 0.00 0.22 0.22 97 1015.1
20260903142007 77 255 3.0 4.0 0.00 0.22 0.22 99 1014.7
20260903141503 76 225 2.0 4.0 0.00 0.22 0.22 99 1014.4
20260903140958 75 223 4.0 5.0 0.00 0.22 0.22 99 1014.4
20260903140454 75 251 3.0 4.0 0.00 0.22 0.22 99 1014.2
20260903135949 74 221 2.0 4.0 0.00 0.22 0.22 99 1014.4
20260903135445 74 318 3.0 4.0 0.00 0.22 0.22 99 1014.5
20260903134944 74 285 1.0 3.0 0.00 0.22 0.22 99 1014.5
20260903134443 74 257 2.0 3.0 0.00 0.22 0.22 99 1014.6
20260903133941 73 257 2.0 4.0 0.00 0.22 0.22 99 1014.7
20260903133437 73 256 3.0 4.0 0.00 0.22 0.22 99 1014.8
20260903132932 73 260 4.0 4.0 0.00 0.22 0.22 99 1014.8
20260903132428 73 270 2.0 4.0 0.00 0.22 0.22 99 1014.2
20260903131927 72 258 2.0 4.0 0.00 0.22 0.22 99 1014.2
20260903131423 72 248 3.0 3.0 0.00 0.22 0.22 99 1014.2
20260903130921 72 270 2.0 3.0 0.00 0.22 0.22 99 1013.9
20260903130417 72 275 2.0 3.0 0.00 0.22 0.22 99 1013.5
20260903125915 71 266 2.0 3.0 0.00 0.22 0.22 99 1013.5
20260903125410 71 263 1.0 5.0 0.00 0.22 0.22 99 1013.9
20260903124909 71 246 0.0 3.0 0.00 0.22 0.22 99 1014.1
20260903124405 71 245 2.0 2.0 0.00 0.22 0.22 99 1014.9
20260903123903 71 258 2.0 3.0 0.02 0.22 0.22 99 1015.0
20260903123358 71 210 3.0 3.0 0.02 0.22 0.22 99 1016.1
20260903122857 71 214 3.0 4.0 0.00 0.22 0.22 99 1016.3
20260903122352 72 255 3.0 3.0 0.00 0.22 0.22 99 1016.6
20260903121851 71 228 2.0 3.0 0.00 0.22 0.22 99 1016.7
20260903121346 72 251 2.0 4.0 0.00 0.22 0.22 99 1016.7
20260903120842 72 270 2.0 3.0 0.00 0.22 0.22 99 1016.7
20260903120341 72 250 2.0 3.0 0.00 0.22 0.22 99 1016.6
20260903115839 72 270 2.0 3.0 0.00 0.22 0.22 99 1016.8
20260903115334 72 239 3.0 3.0 0.00 0.22 0.22 99 1016.6
20260903114834 72 277 1.0 3.0 0.00 0.22 0.22 99 1016.4
20260903114330 71 266 2.0 3.0 0.00 0.22 0.22 99 1016.6
20260903113825 71 283 1.0 3.0 0.05 0.22 0.22 99 1016.3
20260903113321 71 289 1.0 4.0 0.07 0.22 0.22 99 1016.0
20260903112817 71 209 1.0 5.0 0.02 0.21 0.21 99 1016.0
20260903112312 71 254 0.0 4.0 0.02 0.20 0.20 99 1016.0
20260903111811 71 248 3.0 3.0 0.02 0.20 0.20 99 1016.1
20260903111306 71 261 2.0 4.0 0.00 0.20 0.20 99 1016.2
20260903110802 71 235 3.0 4.0 0.00 0.20 0.20 99 1015.8
20260903110257 71 250 2.0 3.0 0.00 0.20 0.20 99 1016.0
20260903105757 71 280 2.0 3.0 0.00 0.20 0.20 99 1015.7
20260903105252 71 241 2.0 2.0 0.00 0.20 0.20 99 1016.0
20260903104752 71 235 2.0 2.0 0.00 0.20 0.20 99 1016.2
20260903104247 71 239 2.0 3.0 0.00 0.20 0.20 99 1016.4
20260903103743 71 244 3.0 3.0 0.00 0.20 0.20 99 1016.4
20260903103239 71 270 0.0 2.0 0.00 0.20 0.20 99 1016.7
20260903102735 71 239 2.0 2.0 0.00 0.20 0.20 99 1016.2
20260903102235 71 229 0.0 2.0 0.00 0.20 0.20 99 1016.8
20260903101733 71 255 2.0 3.0 0.00 0.20 0.20 99 1017.0
20260903101229 71 250 2.0 2.0 0.00 0.20 0.20 99 1016.8
20260903100724 71 254 1.0 2.0 0.00 0.20 0.20 99 1016.8
20260903100223 71 243 2.0 2.0 0.00 0.20 0.20 99 1017.3
20260903095721 71 261 2.0 2.0 0.00 0.20 0.20 99 1017.6
20260903095216 71 241 2.0 3.0 0.00 0.20 0.20 99 1017.1
20260903094711 71 243 2.0 2.0 0.09 0.20 0.20 99 1017.1
20260903094206 71 233 2.0 2.0 0.17 0.20 0.20 99 1016.9
20260903093702 71 228 2.0 3.0 0.02 0.18 0.18 99 1017.3
20260903093157 71 259 2.0 3.0 0.00 0.17 0.17 99 1017.5
20260903092656 71 294 1.0 3.0 0.12 0.17 0.17 99 1017.6
20260903092151 71 313 3.0 4.0 0.26 0.17 0.17 99 1017.0
20260903091649 71 195 0.0 3.0 0.09 0.14 0.14 99 1016.8
20260903091144 71 255 3.0 3.0 0.05 0.13 0.13 99 1016.9
20260903090640 71 259 2.0 3.0 0.05 0.13 0.13 99 1016.4
20260903090139 71 227 3.0 3.0 0.02 0.12 0.12 99 1016.4
20260903085637 71 270 1.0 3.0 0.00 0.12 0.12 99 1016.2
20260903085133 71 277 1.0 2.0 0.00 0.12 0.12 99 1016.3
20260903084630 71 257 1.0 3.0 0.00 0.12 0.12 99 1015.8
20260903084126 71 262 2.0 3.0 0.00 0.12 0.12 99 1015.9
20260903083622 71 278 1.0 2.0 0.00 0.12 0.12 99 1015.8
20260903083121 71 257 1.0 3.0 0.00 0.12 0.12 99 1016.0
20260903082616 71 280 2.0 3.0 0.00 0.12 0.12 99 1016.2
20260903082112 71 241 2.0 3.0 0.00 0.12 0.12 99 1015.9
20260903081606 71 209 0.0 3.0 0.00 0.12 0.12 99 1016.1
20260903081102 71 260 2.0 2.0 0.00 0.12 0.12 99 1016.3
20260903080558 71 243 1.0 2.0 0.00 0.12 0.12 99 1016.2
20260903080055 71 241 3.0 3.0 0.00 0.12 0.12 99 1016.2
20260903075549 71 243 3.0 3.0 0.00 0.12 0.12 99 1016.1
20260903075045 71 235 2.0 3.0 0.00 0.12 0.12 99 1016.2
20260903074544 71 279 0.0 3.0 0.00 0.12 0.12 99 1016.3
20260903074039 71 263 1.0 3.0 0.00 0.12 0.12 99 1016.3
20260903073534 71 276 1.0 3.0 0.00 0.12 0.12 99 1016.2
20260903073030 71 233 2.0 2.0 0.07 0.12 0.12 99 1016.7
20260903072526 71 240 1.0 3.0 0.12 0.12 0.12 99 1017.1
20260903072022 71 240 2.0 3.0 0.21 0.11 0.11 99 1017.1
20260903071518 71 243 2.0 3.0 0.21 0.09 0.09 99 1017.0
20260903071019 71 240 2.0 3.0 0.21 0.07 0.07 99 1017.0
20260903070518 71 249 0.0 3.0 0.17 0.05 0.05 99 1017.8
20260903070015 71 260 3.0 3.0 0.14 0.04 0.04 99 1017.9
20260903065508 71 258 2.0 2.0 0.12 0.02 0.02 99 1017.7
20260903065008 71 265 2.0 3.0 0.07 0.01 0.01 99 1017.8
20260903064502 71 280 2.0 3.0 0.00 0.00 0.00 99 1018.0
20260903063958 71 260 2.0 2.0 0.00 0.00 0.00 99 1018.0
20260903063453 72 246 1.0 2.0 0.00 0.00 0.00 99 1017.3
20260903062948 72 246 1.0 2.0 0.00 0.00 0.00 99 1017.2
20260903062448 71 305 2.0 2.0 0.00 0.00 0.00 99 1017.1
20260903061944 71 285 2.0 2.0 0.00 0.00 0.00 99 1016.6
20260903061438 71 255 3.0 3.0 0.00 0.00 0.00 99 1016.8
20260903060933 71 262 2.0 2.0 0.00 0.00 0.00 99 1016.8
20260903060428 71 262 2.0 2.0 0.00 0.00 0.00 99 1016.9
20260903055926 71 270 2.0 2.0 0.00 0.00 0.00 99 1016.5